SCOUT A R/B, 2967

Orbit data source: Space-Track

SCOUT A R/B, 2967 is space debris in LEO originally from a launch on Mon, 25 Sep 1967 UTC launched from the Air Force Western Test Range (AFWTR). Debris objects in space refer to the collection of defunct objects orbiting the Earth. Examples of debris include non-operational satellites, rocket bodies, and fragments generated from explosions, collisions, or faulty payload assembly.

Loading next visibility...
Identifier
2967, 1967-092B
Orbit
LEO
Country
Flag of USUS
Related business
Manufacturer
ABL
Mission
Spacecraft
Bus & Motor
ALTAIR, Unknown motor
Mass
33 kg wet, 33 kg dry
Launch date (UTC)
1967-09-25 (58 years ago)
Launch vehicle
Unknown
Launch site
Air Force Western Test Range (AFWTR)
Object type
Payload
Rocket body
Debris
Shape & HBR
Unknown
Radar Cross Section
Medium (>0.1 m² and <1 m²)

Expand to show TLE details & history
Last TLE update: 10 hours ago

TLE from 10 hours ago
0 SCOUT A R/B
1 02967U 67092B   25299.79384243  .00000114  00000-0  15320-3 0  9995
2 02967  89.2545  26.7971 0048157  59.7455  60.4303 13.52355225863388
Epoch: 2025-10-26T19:03Z
TLE epoch observation values (Epoch: 2025-10-26T19:03:07.985Z)
Latitude
59.4256°
Longitude
-115.64663°
Altitude
1,056.211 km
Speed
7.338 km/s
True Right ascension
13h 42m 09s
True Declination
59° 16' 51"
Sunlit
Object was in daylight at epoch
Visualization orbit readout
Latitude
Unknown
Longitude
Unknown
Altitude
Unknown
Speed
Unknown
Apparent Right ascension
Unknown
Apparent Declination
Unknown
Sunlit
N/A
Visualization observer readout
Local Sidereal Time
00:55:18
Azimuth
Unknown
Elevation
Unknown
Doppler factor
Unknown
Orbital elements
Apogee altitude
1,096.476 km
Perigee altitude
1,024.831 km
Semi-major axis
7,438.79 km
Eccentricity
0.00482
Inclination
89.2545°
RAAN
26.7971°
Arg. of periapsis
59.7455°
True anomaly
60.91169°
Mean anomaly
60.4303°
Eccentric anomaly
60.67085°
Mean motion
3.3829 °/min
Orbital period
106.42 mins
BSTAR
0.0001532
Loading maneuver chart data...
Computing Atmospheric mass density...
Loading historical data...
Loading historical data...
Loading historical data...
Loading historical data...
Loading historical data...
Loading historical data...
Loading historical data...

Documentation

Showing up to 5 results
|